Date,TemperatureHighF,TemperatureAvgF,TemperatureLowF,DewpointHighF,DewpointAvgF,DewpointLowF,HumidityHigh,HumidityAvg,HumidityLow,PressureMaxIn,PressureMinIn,WindSpeedMaxMPH,WindSpeedAvgMPH,GustSpeedMaxMPH,PrecipitationSumIn
2013-5-1,78.3,58.0,36.3,46.1,37.7,32.2,95,54,19,30.36,30.22,7,1,14,0.00
2013-5-2,78.6,60.1,37.3,47.0,40.0,34.7,95,54,26,30.37,30.23,8,2,16,0.00
2013-5-3,70.6,54.7,35.0,45.1,36.9,31.2,88,55,29,30.45,30.24,7,1,17,0.00
2013-5-4,75.8,57.9,36.2,47.6,37.1,28.8,100,56,18,30.30,30.09,8,2,18,0.00
2013-5-5,77.6,57.8,35.8,41.7,35.9,29.4,97,52,18,30.20,30.03,8,1,15,0.00
2013-5-6,78.5,58.4,36.3,41.9,34.9,16.5,96,52,10,30.14,29.97,7,1,16,0.00
2013-5-7,82.6,60.5,36.2,48.5,37.6,23.9,95,53,12,30.06,29.93,6,1,13,0.00
2013-5-8,77.0,60.6,41.5,58.3,50.5,40.8,99,73,34,30.10,29.95,8,2,23,0.00
2013-5-9,71.6,62.1,55.1,60.4,56.7,51.1,100,85,49,29.95,29.77,7,1,20,0.07
2013-5-10,73.2,60.3,52.5,61.8,55.9,51.7,100,88,48,29.89,29.74,6,1,12,0.00
2013-5-11,67.9,60.9,51.3,62.9,57.9,50.0,100,90,72,29.74,29.52,8,1,18,0.05
2013-5-12,61.6,51.2,40.3,50.5,42.0,27.9,100,73,38,29.68,29.50,9,2,24,0.00
2013-5-13,48.2,42.6,36.9,35.3,29.4,25.1,91,61,45,29.98,29.67,10,4,24,0.00
2013-5-14,54.1,42.2,31.2,38.1,28.4,19.4,100,66,26,30.03,29.91,7,2,21,0.02
2013-5-15,64.3,44.0,25.3,49.3,34.7,24.6,99,77,28,29.99,29.55,7,1,23,0.05
2013-5-16,72.1,55.7,44.2,53.6,42.3,33.4,100,68,25,29.78,29.50,12,3,35,0.01
2013-5-17,62.6,51.6,43.6,44.3,40.2,35.7,92,67,38,30.16,29.78,8,2,22,0.00
2013-5-18,70.3,54.2,34.0,45.5,38.7,32.1,100,63,25,30.23,30.13,5,1,13,0.00
2013-5-19,67.8,54.4,41.6,57.0,48.4,40.8,100,83,49,30.22,30.03,6,1,16,0.28
2013-5-20,67.9,57.9,52.2,62.0,56.9,52.0,100,97,74,30.03,29.89,5,0,10,0.04
2013-5-21,70.3,60.0,50.4,66.1,57.4,50.4,100,92,71,29.93,29.75,11,2,25,0.57
2013-5-22,71.6,60.8,51.6,68.3,58.7,51.4,100,93,73,29.85,29.71,6,2,16,0.43
2013-5-23,76.5,66.5,58.7,69.0,62.2,58.7,100,87,59,29.75,29.61,6,2,22,0.77
2013-5-24,62.1,50.3,44.2,62.1,49.9,43.2,100,98,94,29.91,29.57,6,2,18,0.57
2013-5-25,44.2,40.0,34.0,43.9,39.2,33.5,100,97,92,29.90,29.79,11,4,26,0.92
2013-5-26,48.6,41.3,34.4,42.4,38.7,34.3,100,91,74,30.02,29.75,7,2,20,0.22
2013-5-27,63.5,47.9,32.7,46.1,36.0,29.8,100,71,29,30.13,30.00,9,2,24,0.01
2013-5-28,72.5,54.7,31.8,50.2,39.6,31.3,100,65,27,30.18,30.03,6,1,16,0.00
2013-5-29,62.1,56.9,51.0,60.1,53.6,42.8,100,90,57,30.04,29.88,4,1,12,0.16
2013-5-30,84.1,68.0,53.8,66.6,60.5,53.8,100,81,47,29.99,29.90,7,2,22,0.01
2013-5-31,88.6,72.0,53.9,70.2,62.0,-99.9,100,76,43,30.00,29.80,6,1,16,0.00